Effective Sunday, March 17, 2024, the National Weather Service National Data Buoy Center will discontinue its Dial-A-Buoy Interactive Voice Response system. For more information, see Service Change Notice 24-06 (PDF).

Station PSTL1 - 8760922 - Pilot's Station East, SW Pass, LA Image indicating link to RSS feed of recent meteorological observations for station PSTL1


Conditions at PSTL1 as of
(6:00 am CST)
1200 GMT on 02/25/2024:
     

Click on the graph icon in the table below to see a time series plot of the last five days of that observation.

5-day plot - Wind Direction Wind Direction (WDIR): N ( 350 deg true )
5-day plot - Wind Speed Wind Speed (WSPD): 7.0 kts
5-day plot - Wind Gust Wind Gust (GST): 8.0 kts
5-day plot - Atmospheric Pressure Atmospheric Pressure (PRES):30.16 in
5-day plot - Pressure Tendency Pressure Tendency (PTDY):+0.03 in ( Rising )
5-day plot - Air Temperature Air Temperature (ATMP): 57.6 °F
5-day plot - Water Temperature Water Temperature (WTMP): 52.0 °F
5-day plot - Wind Speed at 10 Meters Wind Speed at 10 meters (WSPD10M): 7.8 kts
5-day plot - Wind Speed at 20 Meters Wind Speed at 20 meters (WSPD20M): 7.8 kts
5-day plot -  Wind Speed, Wind Gust and Atmospheric Pressure Combined plot of Wind Speed, Gust, and Air Pressure
NOS Water Level Observation Network Water Level
Previous observations
TIME
(CST)
5-day plot - Wind Direction
WDIR
 
5-day plot - Wind Speed
WSPD
kts
5-day plot - Wind Gust
GST
kts
5-day plot - Wave Height
WVHT
ft
5-day plot - Dominant Wave Period
DPD
sec
5-day plot - Average Wave Period
APD
sec
5-day plot - Mean Wave Direction
MWD
 
5-day plot - Atmospheric Pressure
PRES
in
5-day plot - Pressure Tendency
PTDY
in
5-day plot - Air Temperature
ATMP
°F
5-day plot - Water Temperature
WTMP
°F
5-day plot - Dew Point
DEWP
°F
5-day plot - Salinity
SAL
psu
5-day plot - Visibility
VIS
nmi
5-day plot - Tide (above MLLW)
TIDE
ft
2024-02-25 05:54 amNNW 7.0 8.0----30.16- 57.7 52.0----
2024-02-25 05:48 amNNW 8.0 8.0----30.16- 58.3 51.8----
2024-02-25 05:42 am N 7.0 7.0----30.16- 58.3 51.8----
2024-02-25 05:36 amNNW 7.0 7.0----30.16- 58.3 52.0----
2024-02-25 05:30 amNNW 7.0 8.0----30.16-- 52.0----
2024-02-25 05:24 amNNW 8.0 9.9----30.16-- 51.8----
2024-02-25 05:18 am NW 8.9 8.9------------
2024-02-25 05:12 am NW 8.0 8.9------------
2024-02-25 05:06 am NW 7.0 8.0------------
2024-02-25 05:00 am NW 8.0 8.9------------
2024-02-25 04:54 am NW 8.0 8.0------------
2024-02-25 04:48 am NW 8.0 8.0----30.15-- 52.0----
2024-02-25 04:42 amWNW 8.0 8.0----30.15- 59.0 52.0----
2024-02-25 04:36 am NW 8.0 8.9----30.15- 59.0 52.0----
2024-02-25 04:30 am NW 8.0 8.9----30.15- 59.2 52.0----
2024-02-25 04:24 am NW 8.0 8.9----30.15- 59.4 51.8----
2024-02-25 04:18 am NW 8.0 8.9----30.14- 59.4 51.8----
2024-02-25 04:12 am NW 8.0 8.9----30.14- 59.4 51.8----
2024-02-25 04:06 am NW 8.9 8.9----30.14- 59.4 51.8----
2024-02-25 04:00 am NW 8.9 9.9----30.14+0.00 59.5 52.0----
2024-02-25 03:54 am NW 9.9 9.9----30.14- 59.5 52.0----
2024-02-25 03:48 am NW 9.9 11.1----30.14- 59.7-----
2024-02-25 03:42 am NW 11.1 12.0----30.14- 59.9-----
2024-02-25 03:36 am NW 11.1 13.0----30.14- 59.9-----
2024-02-25 03:30 amWNW 12.0 13.0----30.14- 60.1 52.0----
2024-02-25 03:24 amWNW 12.0 13.0----30.14- 60.1 52.0----
2024-02-25 03:18 amWNW 12.0 13.0----30.14- 60.4 52.0----
2024-02-25 03:12 amWNW 11.1 13.0----30.14- 60.3 52.0----
2024-02-25 03:06 amWNW 12.0 13.0----30.14- 60.3 52.0----
2024-02-25 03:00 amWNW 11.1 12.0----30.14+0.00- 52.0----
2024-02-25 02:54 amWNW 11.1 14.0----30.14-- 52.0----
2024-02-25 02:48 amWNW 14.0 15.0----30.14- 60.8 52.0----
2024-02-25 02:42 amWNW 13.0 15.0----30.14- 60.8 52.0----
2024-02-25 02:36 amWNW 13.0 15.0----30.14- 61.2 52.0----
2024-02-25 02:30 amWNW 12.0 15.9----30.14- 61.3 52.0----
2024-02-25 02:24 amWNW 9.9 14.0----30.14- 61.2 52.0----
2024-02-25 02:18 amWNW 9.9 13.0----30.14- 61.2 52.0----
2024-02-25 02:12 amWNW 8.9 13.0----30.14- 61.2 52.0----
2024-02-25 02:06 amWNW 8.9 12.0----30.14- 61.0 52.0----
2024-02-25 02:00 amWNW 9.9 15.0----30.14-0.01 61.2 52.0----
2024-02-25 01:54 amWNW 9.9 14.0----30.14- 61.3 52.0----
2024-02-25 01:48 amWNW 9.9 14.0----30.14- 61.0 52.0----
2024-02-25 01:42 amWNW 8.9 13.0----30.14- 61.2 52.0----
2024-02-25 01:36 amWNW 8.9 14.0----30.14- 61.0 52.0----
2024-02-25 01:30 amWNW 8.0 12.0----30.14- 60.8 52.0----
2024-02-25 01:24 amWNW 8.9 12.0----30.14- 60.8 52.0----
2024-02-25 01:18 am W 8.9 12.0----30.14-- 52.0----
2024-02-25 01:12 amWNW 8.9 12.0----30.14- 60.6 52.0----
2024-02-25 01:06 am W 9.9 14.0----30.14- 60.6 52.0----
2024-02-25 01:00 am W 9.9 13.0----30.14-0.01 60.6 52.0----
2024-02-25 12:54 am W 8.9 13.0----30.14- 60.8 52.0----
2024-02-25 12:48 am W 8.0 13.0----30.14-- 52.0----
2024-02-25 12:42 am W 8.9 13.0----30.14- 60.8 52.0----
2024-02-25 12:36 am W 9.9 14.0----30.14- 60.8 51.8----
2024-02-25 12:30 am W 9.9 15.0----30.14- 60.8 51.8----
2024-02-25 12:24 am W 8.9 15.0----30.14- 60.8 51.8----
2024-02-25 12:18 am W 9.9 14.0----30.14- 61.0 51.8----
2024-02-25 12:12 am W 8.9 15.0----30.14- 61.0 51.8----
2024-02-25 12:06 am W 12.0 15.0----30.14- 61.2 51.8----
2024-02-25 12:00 am W 14.0 15.0----30.14+0.00 61.2-----
2024-02-24 11:54 pm W 14.0 15.9----30.14- 61.2-----
2024-02-24 11:48 pm W 14.0 15.9----30.14- 61.3 51.8----
2024-02-24 11:42 pm W 14.0 15.9----30.14- 61.5 51.8----
2024-02-24 11:36 pmWSW 14.0 15.0----30.15- 61.7 51.8----
2024-02-24 11:30 pmWSW 15.0 15.9----30.15- 61.5 51.8----
2024-02-24 11:24 pmWSW 14.0 15.0----30.15- 61.9 51.8----
2024-02-24 11:18 pmWSW 14.0 15.0----30.15- 61.5 51.8----
2024-02-24 11:12 pmWSW 13.0 15.0----30.15- 61.5 51.8----
2024-02-24 11:06 pmWSW 14.0 15.0----30.15- 61.5 51.8----
2024-02-24 11:00 pmWSW 14.0 15.0----30.15+0.02 61.5 51.8----
2024-02-24 10:54 pmWSW 13.0 15.0----30.15- 61.5 52.0----
2024-02-24 10:48 pmWSW 13.0 15.0----30.15-- 52.0----
2024-02-24 10:42 pmWSW 13.0 14.0----30.15-- 52.0----
2024-02-24 10:36 pmWSW 13.0 14.0----30.15-- 52.0----
2024-02-24 10:30 pmWSW 12.0 14.0----30.15- 61.9 52.0----
2024-02-24 10:24 pm W 13.0 15.0----30.15- 62.1 52.0----
2024-02-24 10:18 pm W 8.9 14.0----30.15- 62.2 52.2----
2024-02-24 10:12 pmWSW 9.9 13.0----30.14- 62.2 52.0----
2024-02-24 10:06 pm W 8.9 14.0----30.15- 62.2 52.0----
2024-02-24 10:00 pm W 9.9 15.9----30.15+0.03 62.2 52.0----
2024-02-24 09:54 pm W 12.0 15.0----30.15- 62.4 52.0----
2024-02-24 09:48 pm W 11.1 15.9----30.15- 62.1 52.0----
2024-02-24 09:42 pm W 14.0 15.0----30.15- 62.1 52.0----
2024-02-24 09:36 pmWSW 13.0 15.0----30.15- 62.2 52.0----
2024-02-24 09:30 pmWSW 14.0 15.9----30.15- 62.4 52.2----
2024-02-24 09:24 pmWSW 13.0 14.0----30.15- 62.1 52.0----
2024-02-24 09:18 pmWSW 13.0 14.0------ 62.2-----
2024-02-24 09:12 pmWSW 12.0 14.0------ 62.2-----
2024-02-24 09:06 pmWSW 13.0 15.0------ 62.2-----
2024-02-24 09:00 pmWSW 14.0 15.9----30.14+0.03 62.2 52.2----
2024-02-24 08:54 pmWSW 14.0 15.9----30.14- 62.6 52.2----
2024-02-24 08:48 pmWSW 14.0 15.9----30.14- 62.8 52.0----
2024-02-24 08:42 pmWSW 14.0 15.9----30.14- 62.4 52.2----
2024-02-24 08:36 pmWSW 15.0 17.1----30.14- 62.8 52.0----
2024-02-24 08:30 pmWSW 15.0 17.1----30.14- 62.6 52.2----
2024-02-24 08:24 pmWSW 15.0 15.9----30.13- 62.4 52.2----
2024-02-24 08:18 pmWSW 14.0 15.9----30.13-- 52.2----
2024-02-24 08:12 pmWSW 15.0 15.9----30.13-- 52.2----
2024-02-24 08:06 pmWSW 14.0 15.9----30.13-- 52.2----
2024-02-24 08:00 pm-------30.13+0.03- 52.2----
2024-02-24 07:54 pm-------30.13-- 52.2----
2024-02-24 07:48 pmWSW 15.0 17.1----30.12-- 52.2----
2024-02-24 07:42 pmWSW 15.0 15.9----30.12-- 52.2----
2024-02-24 07:36 pmWSW 14.0 15.9----30.12-- 52.2----
2024-02-24 07:30 pmWSW 15.0 17.1----30.12- 62.8 52.0----
2024-02-24 07:24 pmWSW 15.0 15.9----30.12- 62.4 52.0----
2024-02-24 07:18 pm SW 14.0 15.0----30.12- 61.7 52.0----
2024-02-24 07:12 pm SW 14.0 15.0----30.12- 61.5 52.0----
2024-02-24 07:06 pm SW 14.0 15.0----30.12- 61.9 52.0----
2024-02-24 07:00 pmWSW 14.0 15.9----30.12+0.02- 52.2----
2024-02-24 06:54 pmWSW 14.0 15.9----30.12-- 52.2----
2024-02-24 06:48 pmWSW 14.0 15.9----30.11-- 52.2----
2024-02-24 06:42 pmWSW 15.0 15.9----30.11-- 52.2----
2024-02-24 06:36 pm SW 15.0 15.9----30.11-- 52.3----
2024-02-24 06:30 pm SW 15.0 17.1----30.11-- 52.2----
2024-02-24 06:24 pm SW 15.0 17.1----30.11-- 52.3----
2024-02-24 06:18 pm SW 15.0 15.9----30.11- 62.6-----
2024-02-24 06:12 pm SW 15.0 17.1----30.11- 62.4-----
2024-02-24 06:06 pm SW 15.0 15.9----30.11- 62.2-----
2024-02-24 06:00 pm SW 15.0 15.9----30.11+0.02 62.1-----
2024-02-24 05:54 pm SW 14.0 15.0----30.11- 61.7-----
2024-02-24 05:48 pm SW 14.0 15.9----30.11- 61.5 52.7----
2024-02-24 05:42 pm SW 15.0 15.9----30.11- 62.1 52.7----
2024-02-24 05:36 pm SW 14.0 15.0----30.11- 62.4 52.7----
2024-02-24 05:30 pm SW 15.0 15.9----30.11-- 52.7----
2024-02-24 05:24 pm SW 15.0 15.9----30.10-- 52.7----
2024-02-24 05:18 pm SW 15.0 15.9----30.10- 63.0 52.7----
2024-02-24 05:12 pm SW 14.0 15.0----30.10- 63.1 52.7----
2024-02-24 05:06 pm SW 14.0 15.9----30.10- 63.3 52.7----
2024-02-24 05:00 pmWSW 14.0 17.1----30.10+0.00 64.2 52.7----
2024-02-24 04:54 pmWSW 15.0 15.9----30.10- 64.4 52.5----
2024-02-24 04:48 pmWSW 15.0 17.1----30.10- 64.2 52.7----
2024-02-24 04:42 pmWSW 15.0 17.1----30.10- 64.4 52.5----
2024-02-24 04:36 pm SW 15.9 17.1----30.10- 64.2 52.5----
2024-02-24 04:30 pmWSW 15.9 17.1----30.10- 64.6 52.7----
2024-02-24 04:24 pmWSW 17.1 18.1----30.10- 64.9 52.9----
2024-02-24 04:18 pmWSW 15.9 18.1----30.10-- 52.7----
2024-02-24 04:12 pmWSW 15.9 18.1----30.10-- 52.9----
2024-02-24 04:06 pmWSW 15.9 17.1----30.10-- 52.9----
2024-02-24 04:00 pmWSW 15.0 17.1----30.10-0.02------
2024-02-24 03:54 pmWSW 13.0 15.9----30.10-------
2024-02-24 03:48 pm SW 15.9 17.1----30.10- 64.6-----
2024-02-24 03:42 pm SW 14.0 15.0----30.10- 63.9-----
2024-02-24 03:36 pm SW 13.0 14.0----30.09- 63.9-----
2024-02-24 03:30 pm SW 14.0 15.0----30.09- 63.7 52.9----
2024-02-24 03:24 pm SW 15.0 15.0----30.09- 63.5 52.9----
2024-02-24 03:18 pm SW 14.0 15.0----30.09- 63.5 52.9----
2024-02-24 03:12 pm SW 13.0 15.0----30.09- 63.3 52.9----
2024-02-24 03:06 pm SW 14.0 15.0----30.09- 63.1 52.9----
2024-02-24 03:00 pm-------30.09-0.05 63.0 52.9----
2024-02-24 02:54 pm-------30.09- 63.0 52.9----
2024-02-24 02:48 pm SW 13.0 14.0----30.09-- 52.9----
2024-02-24 02:42 pm SW 13.0 14.0----30.09-- 52.9----
2024-02-24 02:36 pm SW 13.0 13.0----30.10-- 52.9----
2024-02-24 02:30 pm SW 13.0 14.0------ 63.3 52.9----
2024-02-24 02:24 pm SW 14.0 14.0------ 63.3 52.9----
2024-02-24 02:18 pm-------30.10- 63.7 52.9----
2024-02-24 02:12 pm-------30.10- 62.8 52.9----
2024-02-24 02:06 pm-------30.10- 62.6 52.7----
2024-02-24 02:00 pm SW 12.0 12.0----30.10-0.06 62.8 52.7----
2024-02-24 01:54 pm SW 11.1 12.0----30.10- 62.8 52.7----
2024-02-24 01:48 pm SW 12.0 12.0----30.10- 62.4 52.7----
2024-02-24 01:42 pm SW 11.1 12.0----30.10- 62.4 52.7----
2024-02-24 01:36 pm SW 11.1 11.1----30.10- 63.1 52.7----
2024-02-24 01:30 pm SW 11.1 12.0----30.10- 62.6-----
2024-02-24 01:24 pm SW 11.1 12.0----30.11- 63.0-----
2024-02-24 01:18 pm SW 11.1 12.0----30.11- 62.8 52.5----
2024-02-24 01:12 pm SW 11.1 11.1----30.11- 62.8 52.5----
2024-02-24 01:06 pm SW 9.9 11.1----30.11- 62.8 52.3----
2024-02-24 01:00 pmWSW 9.9 11.1----30.12-0.04- 52.3----
2024-02-24 12:54 pmWSW 8.9 9.9----30.12-- 52.3----
2024-02-24 12:48 pmWSW 9.9 11.1----30.12- 63.5 52.3----
2024-02-24 12:42 pmWSW 9.9 11.1----30.13- 63.5 52.3----
2024-02-24 12:36 pmWSW 9.9 11.1----30.13- 63.3 52.3----
2024-02-24 12:30 pmWSW 9.9 12.0----30.14- 63.5 52.3----
2024-02-24 12:24 pmWSW 9.9 11.1----30.14- 63.7 52.3----
2024-02-24 12:18 pmWSW 9.9 11.1----30.14- 63.1 52.2----
2024-02-24 12:12 pmWSW 8.9 9.9----30.14- 63.1 52.2----
2024-02-24 12:06 pm W 4.1 8.9----30.14- 63.3 52.2----
2024-02-24 12:00 pmWNW 2.9 6.0----30.14-- 52.2----
2024-02-24 11:54 amWNW 2.9 7.0----30.14-- 52.2----
2024-02-24 11:48 am NW 2.9 6.0----30.14-- 52.2----
2024-02-24 11:42 am NW 1.9 7.0----30.15-- 52.2----
2024-02-24 11:36 amWNW 5.1 7.0----30.15-- 52.2----
2024-02-24 11:30 am NW 2.9 8.9----30.15- 62.8 52.2----
2024-02-24 11:24 am NW 1.9 7.0----30.15- 62.6 52.2----
2024-02-24 11:18 amWNW 5.1 7.0----30.16- 62.6 52.0----
2024-02-24 11:12 amWNW 4.1 8.0----30.16- 62.1 52.2----
2024-02-24 11:06 amWNW 5.1 8.9----30.16- 62.1 52.0----
2024-02-24 11:00 am NW 4.1 8.0----30.16+0.03 62.1 52.2----
2024-02-24 10:54 am NW 2.9 7.0----30.16- 62.2 52.0----
2024-02-24 10:48 amWNW 4.1 8.0----30.16-- 52.0----
2024-02-24 10:42 amWNW 2.9 7.0----30.16-- 52.0----
2024-02-24 10:36 am NW 4.1 9.9----30.16-- 52.0----
2024-02-24 10:30 amWNW 6.0 8.9----30.16-- 51.8----
2024-02-24 10:24 amWNW 5.1 8.0----30.16-- 51.8----
2024-02-24 10:18 amWNW 5.1 8.9------ 62.6 51.8----
2024-02-24 10:12 am W 7.0 8.9------ 62.6 51.8----
2024-02-24 10:06 amWNW 7.0 8.9------ 62.4 51.8----
2024-02-24 10:00 amWNW 6.0 8.9----30.16-- 51.8----
2024-02-24 09:54 amWNW 6.0 8.9----30.16-- 51.8----
2024-02-24 09:48 amWNW 8.0 9.9----30.15-- 51.8----
2024-02-24 09:42 amWNW 6.0 8.9----30.15-- 51.8----
2024-02-24 09:36 amWNW 6.0 8.9----30.15-- 51.8----
2024-02-24 09:30 amWNW 5.1 8.0----30.15- 61.2 51.6----
2024-02-24 09:24 amWNW 6.0 8.0----30.15- 61.0 51.6----
2024-02-24 09:18 amWNW 6.0 7.0----30.15- 60.8 51.6----
2024-02-24 09:12 amWNW 7.0 8.0----30.14- 60.4 51.6----
2024-02-24 09:06 amWNW 7.0 8.0----30.14- 60.6 51.6----
2024-02-24 09:00 amWNW 6.0 7.0------------
2024-02-24 08:54 amWNW 6.0 7.0------------
2024-02-24 08:48 amWNW 7.0 8.0----30.14-- 51.8----
2024-02-24 08:42 amWNW 6.0 7.0----30.14-- 51.8----
2024-02-24 08:36 amWNW 6.0 7.0----30.14-- 51.6----
2024-02-24 08:30 amWNW 6.0 7.0----30.13- 59.9 51.6----
2024-02-24 08:24 amWNW 6.0 7.0----30.13- 59.2 51.6----
2024-02-24 08:18 amWNW 6.0 7.0----30.13- 59.0 51.6----
2024-02-24 08:12 amWNW 6.0 7.0----30.13- 59.0 51.6----
2024-02-24 08:06 amWNW 6.0 7.0----30.13- 58.8 51.6----
2024-02-24 08:00 amWNW 5.1 6.0----30.12+0.08 59.0 51.6----
2024-02-24 07:54 amWNW 5.1 6.0----30.12- 59.0 51.6----
2024-02-24 07:48 amWNW 5.1 7.0------- 51.6----
2024-02-24 07:42 am NW 6.0 7.0------- 51.6----
2024-02-24 07:36 am NW 5.1 7.0------- 51.6----
2024-02-24 07:30 am NW 6.0 7.0----30.11-------
2024-02-24 07:24 am NW 6.0 7.0----30.11-------
2024-02-24 07:18 am NW 6.0 6.0----30.10-------
2024-02-24 07:12 amNNW 6.0 7.0----30.10-------
2024-02-24 07:06 amNNW 7.0 8.0----30.10-------
2024-02-24 07:00 am--------- 56.8 51.6----
2024-02-24 06:54 am--------- 56.8 51.6----
2024-02-24 06:48 amNNW 7.0 7.0----30.09- 56.8 51.6----
2024-02-24 06:42 amNNW 7.0 7.0----30.09- 56.8 51.6----
2024-02-24 06:36 amNNW 6.0 7.0----30.09- 56.8 51.6----
2024-02-24 06:30 amNNW 6.0 6.0----30.09-------
2024-02-24 06:24 amNNW 6.0 8.9----30.09-------
2024-02-24 06:18 amNNW 6.0 7.0----30.09-- 51.8----
2024-02-24 06:12 amNNW 7.0 8.9----30.08-- 51.8----
2024-02-24 06:06 amNNW 7.0 8.9----30.08-- 51.6----
2024-02-24 06:00 amNNW 7.0 8.0----30.08+0.06 56.8 51.8----
2024-02-24 05:54 amNNW 7.0 8.0----30.07- 56.8 51.8----